Вернуться в каталог

DELTA 1 DEB

АктивенLEO
NORAD 14493·DEBRIS·🇺🇸 United States

Запущен Jul 14, 1977 с Cape Canaveral Space Force Station

Loading…

Ближайшие Пролёты (ближайшие 24 часа)

TLE

СвежийSource: Space-Track

Эпоха: Sep 14, 2026, 14:21 UTC

1 14493U 77065FJ  26257.59836548  .00002214  00000-0  40196-3 0  9998
2 14493  28.9459  75.8187 0556095  48.2144 316.4603 13.95451681244779

Отслеживайте DELTA 1 DEB в реальном времени с AllMySat

Download on the App Store